^^
Daily Summary for June 06, 2021 Units:  Metric    English   Both
Daily Weekly Monthly Yearly Custom
  High: Low: Average:
Temperature: 31.1 °C 13.9 °C 22.8 °C
Dew Point: 11.1 °C 5.6 °C 8 °C
Humidity: 65% 24% 41%
Wind Speed: 40.2km/h 0km/h 7.9km/h
Wind Gust: 40.2km/h - -
Wind- - SSW
Pressure: 1012.4 hPa 1009 hPa -
Precipitation: 0 mm    
Historical Graphs
 
 
Tabular Data for June 06, 2021
Time Temperature Dew Point Pressure Wind Wind Speed Wind Gust Humidity Rainfall Rate (Hourly) solar
00:04 19.4 °C 7.8 °C 1009 hPa Calm     47% 0 mm 0.00 W/m2
00:09 18.9 °C 7.8 °C 1009 hPa Calm     47% 0 mm 0.00 W/m2
00:14 18.9 °C 7.2 °C 1009 hPa Calm     47% 0 mm 0.00 W/m2
00:19 18.9 °C 7.8 °C 1009 hPa Calm     48% 0 mm 0.00 W/m2
00:24 18.9 °C 7.8 °C 1009 hPa Calm     48% 0 mm 0.00 W/m2
00:29 18.9 °C 7.8 °C 1009 hPa Calm     49% 0 mm 0.00 W/m2
00:34 18.3 °C 7.8 °C 1009 hPa Calm     49% 0 mm 0.00 W/m2
00:39 18.3 °C 7.2 °C 1009 hPa Calm     48% 0 mm 0.00 W/m2
00:44 18.3 °C 7.2 °C 1009 hPa Calm     49% 0 mm 0.00 W/m2
00:49 18.3 °C 7.2 °C 1009 hPa Calm     49% 0 mm 0.00 W/m2
00:54 18.3 °C 7.2 °C 1009 hPa Calm     49% 0 mm 0.00 W/m2
00:59 18.3 °C 7.2 °C 1009 hPa Calm     50% 0 mm 0.00 W/m2
01:04 17.8 °C 7.2 °C 1009 hPa Calm     50% 0 mm 0.00 W/m2
01:09 17.8 °C 7.2 °C 1009 hPa Calm     50% 0 mm 0.00 W/m2
01:14 17.8 °C 7.2 °C 1009 hPa Calm     50% 0 mm 0.00 W/m2
01:19 17.8 °C 7.2 °C 1009 hPa Calm     50% 0 mm 0.00 W/m2
01:24 17.8 °C 7.2 °C 1009 hPa Calm     50% 0 mm 0.00 W/m2
01:29 17.8 °C 7.2 °C 1009 hPa Calm     51% 0 mm 0.00 W/m2
01:34 17.2 °C 7.2 °C 1009 hPa Calm     51% 0 mm 0.00 W/m2
01:39 17.2 °C 7.2 °C 1009 hPa Calm     51% 0 mm 0.00 W/m2
01:44 17.2 °C 7.2 °C 1009 hPa Calm     52% 0 mm 0.00 W/m2
01:49 17.2 °C 7.2 °C 1009 hPa SW 3.2 km/h   51% 0 mm 0.00 W/m2
01:54 17.2 °C 7.2 °C 1009 hPa Calm   3.2 km/h 52% 0 mm 0.00 W/m2
01:59 17.2 °C 7.2 °C 1009 hPa Calm     52% 0 mm 0.00 W/m2
02:04 17.2 °C 7.2 °C 1009 hPa Calm     52% 0 mm 0.00 W/m2
02:09 17.2 °C 7.2 °C 1009 hPa Calm     52% 0 mm 0.00 W/m2
02:14 16.7 °C 7.2 °C 1009 hPa Calm     52% 0 mm 0.00 W/m2
02:19 16.7 °C 6.7 °C 1009 hPa Calm     52% 0 mm 0.00 W/m2
02:24 16.7 °C 7.2 °C 1009 hPa Calm     53% 0 mm 0.00 W/m2
02:29 16.7 °C 7.2 °C 1009 hPa Calm     53% 0 mm 0.00 W/m2
02:34 16.7 °C 7.2 °C 1009 hPa Calm     54% 0 mm 0.00 W/m2
02:39 16.7 °C 7.8 °C 1009 hPa Calm     55% 0 mm 0.00 W/m2
02:44 16.7 °C 7.8 °C 1009 hPa Calm     55% 0 mm 0.00 W/m2
02:49 16.7 °C 7.2 °C 1009 hPa Calm     54% 0 mm 0.00 W/m2
02:54 16.7 °C 7.2 °C 1009 hPa Calm     54% 0 mm 0.00 W/m2
02:59 16.7 °C 7.2 °C 1009 hPa Calm     54% 0 mm 0.00 W/m2
03:04 16.7 °C 7.2 °C 1009 hPa Calm     54% 0 mm 0.00 W/m2
03:09 16.7 °C 7.2 °C 1009 hPa Calm     55% 0 mm 0.00 W/m2
03:14 16.7 °C 7.2 °C 1009 hPa Calm     55% 0 mm 0.00 W/m2
03:19 16.1 °C 7.2 °C 1009 hPa Calm     54% 0 mm 0.00 W/m2
03:24 16.1 °C 6.7 °C 1009 hPa Calm     53% 0 mm 0.00 W/m2
03:29 16.1 °C 6.7 °C 1009 hPa Calm     53% 0 mm 0.00 W/m2
03:34 16.1 °C 6.1 °C 1009 hPa Calm     52% 0 mm 0.00 W/m2
03:39 16.1 °C 6.1 °C 1009 hPa Calm     52% 0 mm 0.00 W/m2
03:44 16.1 °C 6.7 °C 1009 hPa Calm     53% 0 mm 0.00 W/m2
03:49 16.1 °C 6.7 °C 1009 hPa Calm     53% 0 mm 0.00 W/m2
03:54 16.1 °C 6.1 °C 1009 hPa Calm     52% 0 mm 0.00 W/m2
03:59 16.1 °C 6.1 °C 1009 hPa Calm     53% 0 mm 0.00 W/m2
04:04 16.1 °C 6.1 °C 1009 hPa Calm     53% 0 mm 0.00 W/m2
04:09 15.6 °C 6.1 °C 1009 hPa Calm     53% 0 mm 0.00 W/m2
04:14 15.6 °C 6.1 °C 1009 hPa Calm     53% 0 mm 0.00 W/m2
04:19 15.6 °C 6.1 °C 1009 hPa Calm     54% 0 mm 0.00 W/m2
04:24 15.6 °C 6.7 °C 1009 hPa Calm     55% 0 mm 0.00 W/m2
04:29 15.6 °C 6.7 °C 1009 hPa Calm     55% 0 mm 0.00 W/m2
04:34 15.6 °C 6.7 °C 1009 hPa Calm     55% 0 mm 0.00 W/m2
04:39 15.6 °C 6.7 °C 1009 hPa Calm     56% 0 mm 0.00 W/m2
04:44 15.6 °C 6.7 °C 1009 hPa Calm     57% 0 mm 0.00 W/m2
04:49 15.6 °C 6.7 °C 1009 hPa Calm     57% 0 mm 0.00 W/m2
04:54 15 °C 6.7 °C 1009 hPa Calm     57% 0 mm 0.00 W/m2
04:59 15 °C 6.1 °C 1009 hPa Calm     56% 0 mm 0.00 W/m2
05:04 15 °C 6.7 °C 1009 hPa Calm     58% 0 mm 0.00 W/m2
05:09 15 °C 6.7 °C 1009 hPa Calm     57% 0 mm 0.00 W/m2
05:14 15 °C 6.7 °C 1009 hPa Calm     58% 0 mm 0.00 W/m2
05:19 15 °C 6.7 °C 1009 hPa Calm     58% 0 mm 0.00 W/m2
05:24 14.4 °C 6.7 °C 1009 hPa Calm     58% 0 mm 0.00 W/m2
05:29 14.4 °C 6.7 °C 1009 hPa Calm     58% 0 mm 0.00 W/m2
05:34 14.4 °C 6.1 °C 1009 hPa Calm     57% 0 mm 0.00 W/m2
05:39 14.4 °C 6.1 °C 1009 hPa Calm     57% 0 mm 0.00 W/m2
05:44 14.4 °C 6.1 °C 1009 hPa Calm     57% 0 mm 0.00 W/m2
05:49 14.4 °C 6.1 °C 1009 hPa Calm     57% 0 mm 0.00 W/m2
05:54 14.4 °C 6.1 °C 1009 hPa Calm     57% 0 mm 5.00 W/m2
05:58 14.4 °C 6.1 °C 1009 hPa Calm     57% 0 mm 5.00 W/m2
06:04 14.4 °C 6.1 °C 1009 hPa Calm     57% 0 mm 7.00 W/m2
06:09 14.4 °C 6.1 °C 1009 hPa Calm     58% 0 mm 7.00 W/m2
06:14 13.9 °C 6.1 °C 1009 hPa Calm     58% 0 mm 9.00 W/m2
06:19 13.9 °C 6.1 °C 1009 hPa Calm     58% 0 mm 9.00 W/m2
06:22 13.9 °C 6.1 °C 1009 hPa Calm     59% 0 mm 9.00 W/m2
06:29 13.9 °C 6.1 °C 1009 hPa Calm     60% 0 mm 11.00 W/m2
06:34 13.9 °C 6.7 °C 1009 hPa Calm     61% 0 mm 12.00 W/m2
06:39 13.9 °C 6.7 °C 1009 hPa Calm     61% 0 mm 12.00 W/m2
06:44 13.9 °C 6.1 °C 1009 hPa Calm     60% 0 mm 14.00 W/m2
06:49 13.9 °C 6.7 °C 1009 hPa SSE 3.2 km/h 1.6 km/h 61% 0 mm 14.00 W/m2
06:52 13.9 °C 6.7 °C 1009 hPa SSE 3.2 km/h 3.2 km/h 61% 0 mm 16.00 W/m2
06:59 13.9 °C 6.7 °C 1009 hPa Calm     61% 0 mm 16.00 W/m2
07:04 13.9 °C 6.7 °C 1009 hPa Calm     61% 0 mm 16.00 W/m2
07:09 13.9 °C 6.7 °C 1009 hPa Calm     61% 0 mm 18.00 W/m2
07:14 13.9 °C 6.7 °C 1009 hPa Calm     61% 0 mm 18.00 W/m2
07:19 14.4 °C 7.2 °C 1009 hPa Calm     62% 0 mm 19.00 W/m2
07:24 14.4 °C 7.2 °C 1009 hPa Calm     62% 0 mm 19.00 W/m2
07:29 14.4 °C 7.2 °C 1009 hPa Calm     62% 0 mm 21.00 W/m2
07:34 14.4 °C 7.2 °C 1009 hPa Calm     62% 0 mm 23.00 W/m2
07:39 15 °C 7.8 °C 1009 hPa SSE 3.2 km/h   62% 0 mm 25.00 W/m2
07:44 15 °C 7.8 °C 1009 hPa Calm   3.2 km/h 62% 0 mm 26.00 W/m2
07:49 15 °C 7.8 °C 1009 hPa Calm     62% 0 mm 33.00 W/m2
07:54 15.6 °C 8.3 °C 1009 hPa Calm     62% 0 mm 74.00 W/m2
07:59 16.1 °C 8.3 °C 1009 hPa Calm     62% 0 mm 42.00 W/m2
08:04 16.1 °C 9.4 °C 1009 hPa Calm     65% 0 mm 35.00 W/m2
08:09 16.7 °C 10 °C 1009 hPa Calm     65% 0 mm 35.00 W/m2
08:14 17.2 °C 10 °C 1009 hPa SSE 3.2 km/h   64% 0 mm 62.00 W/m2
08:19 17.8 °C 9.4 °C 1009 hPa SSE 3.2 km/h 3.2 km/h 59% 0 mm 132.00 W/m2
08:24 18.3 °C 9.4 °C 1009 hPa SW 11.3 km/h 6.4 km/h 58% 0 mm 250.00 W/m2
08:29 18.9 °C 8.9 °C 1009 hPa WSW 9.7 km/h 11.3 km/h 53% 0 mm 74.00 W/m2
08:34 19.4 °C 8.3 °C 1009 hPa WSW 14.5 km/h 9.7 km/h 50% 0 mm 527.00 W/m2
08:39 20 °C 8.3 °C 1009 hPa SW 11.3 km/h 14.5 km/h 48% 0 mm 547.00 W/m2
08:44 20 °C 8.3 °C 1009 hPa WNW 6.4 km/h 11.3 km/h 47% 0 mm 564.00 W/m2
08:49 20 °C 7.8 °C 1009 hPa WSW 9.7 km/h 4.8 km/h 45% 0 mm 577.00 W/m2
08:54 20.6 °C 8.3 °C 1009 hPa West 8 km/h 9.7 km/h 45% 0 mm 594.00 W/m2
08:59 20.6 °C 8.3 °C 1009 hPa WSW 9.7 km/h 9.7 km/h 45% 0 mm 610.00 W/m2
09:04 21.1 °C 7.8 °C 1009 hPa WSW 14.5 km/h 12.9 km/h 44% 0 mm 624.00 W/m2
09:09 21.1 °C 7.8 °C 1012.4 hPa West 11.3 km/h 14.5 km/h 43% 0 mm 638.00 W/m2
09:14 21.1 °C 8.3 °C 1012.4 hPa WSW 11.3 km/h 11.3 km/h 43% 0 mm 652.00 W/m2
09:19 21.7 °C 7.8 °C 1012.4 hPa WSW 9.7 km/h 9.7 km/h 42% 0 mm 668.00 W/m2
09:24 21.7 °C 8.3 °C 1012.4 hPa SW 9.7 km/h 9.7 km/h 42% 0 mm 684.00 W/m2
09:29 21.7 °C 8.9 °C 1012.4 hPa SW 11.3 km/h 9.7 km/h 43% 0 mm 696.00 W/m2
09:34 22.2 °C 8.9 °C 1012.4 hPa SW 3.2 km/h 11.3 km/h 43% 0 mm 712.00 W/m2
09:39 22.2 °C 8.9 °C 1012.4 hPa SW 6.4 km/h 3.2 km/h 43% 0 mm 722.00 W/m2
09:44 22.8 °C 8.9 °C 1012.4 hPa SW 6.4 km/h 4.8 km/h 41% 0 mm 737.00 W/m2
09:49 22.8 °C 8.9 °C 1012.4 hPa SSW 9.7 km/h 9.7 km/h 42% 0 mm 749.00 W/m2
09:54 22.8 °C 8.9 °C 1012.4 hPa SSW 3.2 km/h 3.2 km/h 41% 0 mm 761.00 W/m2
09:59 23.3 °C 8.9 °C 1012.4 hPa SW 11.3 km/h 6.4 km/h 41% 0 mm 777.00 W/m2
10:04 23.3 °C 9.4 °C 1012.4 hPa WSW 4.8 km/h 11.3 km/h 41% 0 mm 788.00 W/m2
10:09 23.9 °C 10 °C 1012.4 hPa SSE 6.4 km/h 3.2 km/h 42% 0 mm 798.00 W/m2
10:14 23.9 °C 9.4 °C 1012.4 hPa WSW 11.3 km/h 4.8 km/h 41% 0 mm 810.00 W/m2
10:19 24.4 °C 10 °C 1012.4 hPa South 6.4 km/h 11.3 km/h 40% 0 mm 823.00 W/m2
10:24 24.4 °C 9.4 °C 1012.4 hPa East 6.4 km/h 4.8 km/h 39% 0 mm 830.00 W/m2
10:29 25 °C 8.9 °C 1012.4 hPa SW 14.5 km/h 9.7 km/h 37% 0 mm 830.00 W/m2
10:34 25 °C 8.3 °C 1009 hPa SE 9.7 km/h 14.5 km/h 35% 0 mm 853.00 W/m2
10:39 25.6 °C 8.9 °C 1009 hPa NW 6.4 km/h 9.7 km/h 35% 0 mm 865.00 W/m2
10:44 25.6 °C 9.4 °C 1009 hPa West 11.3 km/h 6.4 km/h 36% 0 mm 874.00 W/m2
10:49 26.1 °C 8.3 °C 1009 hPa West 17.7 km/h 14.5 km/h 33% 0 mm 881.00 W/m2
10:54 26.1 °C 8.3 °C 1009 hPa West 14.5 km/h 16.1 km/h 32% 0 mm 891.00 W/m2
10:59 26.1 °C 8.9 °C 1009 hPa WNW 11.3 km/h 14.5 km/h 33% 0 mm 898.00 W/m2
11:04 26.7 °C 8.9 °C 1009 hPa WSW 17.7 km/h 11.3 km/h 33% 0 mm 905.00 W/m2
11:09 26.7 °C 8.3 °C 1009 hPa SW 17.7 km/h 16.1 km/h 32% 0 mm 918.00 W/m2
11:14 26.7 °C 8.3 °C 1009 hPa SSW 9.7 km/h 16.1 km/h 32% 0 mm 925.00 W/m2
11:19 26.7 °C 8.3 °C 1009 hPa SW 11.3 km/h 4.8 km/h 31% 0 mm 928.00 W/m2
11:24 27.2 °C 8.3 °C 1009 hPa WSW 14.5 km/h 14.5 km/h 31% 0 mm 937.00 W/m2
11:29 27.2 °C 8.3 °C 1009 hPa WSW 20.9 km/h 20.9 km/h 31% 0 mm 940.00 W/m2
11:34 27.2 °C 8.3 °C 1009 hPa SSW 9.7 km/h 11.3 km/h 30% 0 mm 949.00 W/m2
11:39 27.8 °C 9.4 °C 1009 hPa SE 6.4 km/h 1.6 km/h 32% 0 mm 956.00 W/m2
11:44 28.3 °C 9.4 °C 1009 hPa SSE 9.7 km/h 4.8 km/h 31% 0 mm 958.00 W/m2
11:49 28.3 °C 8.3 °C 1009 hPa WSW 11.3 km/h 9.7 km/h 29% 0 mm 965.00 W/m2
11:54 28.3 °C 9.4 °C 1009 hPa West 14.5 km/h 11.3 km/h 31% 0 mm 969.00 W/m2
11:59 28.3 °C 9.4 °C 1009 hPa WSW 14.5 km/h 14.5 km/h 31% 0 mm 974.00 W/m2
12:04 28.3 °C 8.9 °C 1012.4 hPa WSW 14.5 km/h 14.5 km/h 29% 0 mm 974.00 W/m2
12:09 28.3 °C 8.9 °C 1009 hPa South 9.7 km/h 9.7 km/h 29% 0 mm 977.00 W/m2
12:14 28.9 °C 9.4 °C 1009 hPa South 14.5 km/h 9.7 km/h 30% 0 mm 984.00 W/m2
12:19 28.9 °C 8.9 °C 1009 hPa SE 14.5 km/h 14.5 km/h 29% 0 mm 988.00 W/m2
12:24 28.9 °C 8.9 °C 1009 hPa SW 14.5 km/h 14.5 km/h 29% 0 mm 990.00 W/m2
12:29 28.9 °C 8.9 °C 1009 hPa WNW 17.7 km/h 11.3 km/h 28% 0 mm 988.00 W/m2
12:34 28.9 °C 8.9 °C 1009 hPa NW 16.1 km/h 16.1 km/h 29% 0 mm 990.00 W/m2
12:39 28.9 °C 9.4 °C 1009 hPa WNW 17.7 km/h 11.3 km/h 29% 0 mm 990.00 W/m2
12:44 28.9 °C 9.4 °C 1009 hPa NW 25.7 km/h 25.7 km/h 30% 0 mm 990.00 W/m2
12:48 28.9 °C 10 °C 1009 hPa WSW 17.7 km/h 25.7 km/h 31% 0 mm 990.00 W/m2
12:54 28.9 °C 8.9 °C 1009 hPa WNW 22.5 km/h 14.5 km/h 28% 0 mm 991.00 W/m2
12:59 28.9 °C 8.9 °C 1009 hPa SE 20.9 km/h 20.9 km/h 29% 0 mm 993.00 W/m2
13:04 29.4 °C 10 °C 1009 hPa ESE 6.4 km/h 11.3 km/h 30% 0 mm 990.00 W/m2
13:09 29.4 °C 10.6 °C 1009 hPa SSE 11.3 km/h 4.8 km/h 31% 0 mm 991.00 W/m2
13:14 29.4 °C 10.6 °C 1009 hPa SW 20.9 km/h 11.3 km/h 31% 0 mm 991.00 W/m2
13:19 30 °C 10 °C 1009 hPa ESE 20.9 km/h 20.9 km/h 29% 0 mm 990.00 W/m2
13:24 30 °C 9.4 °C 1009 hPa WNW 11.3 km/h 20.9 km/h 28% 0 mm 988.00 W/m2
13:29 30 °C 10 °C 1009 hPa West 14.5 km/h 6.4 km/h 29% 0 mm 986.00 W/m2
13:34 30 °C 10 °C 1009 hPa WNW 25.7 km/h 16.1 km/h 29% 0 mm 981.00 W/m2
13:39 30 °C 9.4 °C 1009 hPa West 40.2 km/h 40.2 km/h 28% 0 mm 974.00 W/m2
13:44 30 °C 9.4 °C 1009 hPa NW 29 km/h 22.5 km/h 28% 0 mm 970.00 W/m2
13:49 29.4 °C 10 °C 1009 hPa ENE 37 km/h 27.4 km/h 29% 0 mm 967.00 W/m2
13:54 29.4 °C 10 °C 1009 hPa SW 30.6 km/h 16.1 km/h 29% 0 mm 958.00 W/m2
13:59 29.4 °C 10 °C 1009 hPa WSW 32.2 km/h 32.2 km/h 30% 0 mm 949.00 W/m2
14:04 29.4 °C 10 °C 1009 hPa ENE 20.9 km/h 20.9 km/h 29% 0 mm 947.00 W/m2
14:09 30 °C 10 °C 1009 hPa SSW 19.3 km/h 20.9 km/h 29% 0 mm 944.00 W/m2
14:14 30 °C 10 °C 1009 hPa SW 20.9 km/h 20.9 km/h 29% 0 mm 933.00 W/m2
14:19 30 °C 10 °C 1009 hPa South 17.7 km/h 16.1 km/h 29% 0 mm 930.00 W/m2
14:24 30 °C 10.6 °C 1009 hPa WNW 25.7 km/h 16.1 km/h 30% 0 mm 925.00 W/m2
14:29 30 °C 10 °C 1009 hPa WNW 29 km/h 25.7 km/h 29% 0 mm 921.00 W/m2
14:34 30 °C 9.4 °C 1009 hPa WNW 27.4 km/h 27.4 km/h 28% 0 mm 912.00 W/m2
14:39 30 °C 10.6 °C 1009 hPa WSW 25.7 km/h 25.7 km/h 30% 0 mm 902.00 W/m2
14:44 30 °C 10.6 °C 1009 hPa NE 14.5 km/h 4.8 km/h 30% 0 mm 891.00 W/m2
14:49 30 °C 10.6 °C 1009 hPa East 14.5 km/h 14.5 km/h 30% 0 mm 882.00 W/m2
14:53 30 °C 10 °C 1009 hPa ENE 14.5 km/h 14.5 km/h 29% 0 mm 877.00 W/m2
14:59 30.6 °C 10 °C 1009 hPa SSW 17.7 km/h 14.5 km/h 28% 0 mm 863.00 W/m2
15:04 30.6 °C 10.6 °C 1009 hPa South 25.7 km/h 16.1 km/h 29% 0 mm 851.00 W/m2
15:09 30.6 °C 10 °C 1009 hPa WSW 20.9 km/h 25.7 km/h 28% 0 mm 840.00 W/m2
15:14 30.6 °C 10 °C 1009 hPa East 11.3 km/h 20.9 km/h 28% 0 mm 831.00 W/m2
15:19 30.6 °C 10 °C 1009 hPa West 17.7 km/h 11.3 km/h 28% 0 mm 823.00 W/m2
15:24 30.6 °C 10 °C 1009 hPa SW 14.5 km/h 16.1 km/h 28% 0 mm 812.00 W/m2
15:29 31.1 °C 9.4 °C 1009 hPa West 9.7 km/h 14.5 km/h 27% 0 mm 802.00 W/m2
15:34 31.1 °C 10 °C 1009 hPa SE 6.4 km/h 9.7 km/h 27% 0 mm 791.00 W/m2
15:39 31.1 °C 10 °C 1009 hPa SSE 17.7 km/h 9.7 km/h 27% 0 mm 773.00 W/m2
15:44 31.1 °C 9.4 °C 1009 hPa West 25.7 km/h 16.1 km/h 26% 0 mm 761.00 W/m2
15:49 31.1 °C 8.9 °C 1009 hPa SW 20.9 km/h 25.7 km/h 25% 0 mm 751.00 W/m2
15:54 31.1 °C 8.9 °C 1009 hPa WSW 14.5 km/h 20.9 km/h 25% 0 mm 737.00 W/m2
15:59 30.6 °C 9.4 °C 1009 hPa SSW 29 km/h 14.5 km/h 27% 0 mm 721.00 W/m2
16:04 30.6 °C 9.4 °C 1009 hPa SW 20.9 km/h 27.4 km/h 27% 0 mm 703.00 W/m2
16:09 31.1 °C 8.9 °C 1009 hPa SW 11.3 km/h 20.9 km/h 26% 0 mm 696.00 W/m2
16:14 31.1 °C 9.4 °C 1009 hPa West 6.4 km/h 11.3 km/h 26% 0 mm 682.00 W/m2
16:19 31.1 °C 8.9 °C 1009 hPa WSW 14.5 km/h 9.7 km/h 25% 0 mm 671.00 W/m2
16:24 31.1 °C 8.9 °C 1009 hPa West 14.5 km/h 14.5 km/h 25% 0 mm 654.00 W/m2
16:29 31.1 °C 8.9 °C 1009 hPa WSW 25.7 km/h 17.7 km/h 25% 0 mm 636.00 W/m2
16:34 31.1 °C 8.3 °C 1009 hPa WSW 25.7 km/h 25.7 km/h 24% 0 mm 626.00 W/m2
16:39 31.1 °C 8.3 °C 1009 hPa West 14.5 km/h 14.5 km/h 24% 0 mm 612.00 W/m2
16:44 31.1 °C 7.8 °C 1009 hPa West 11.3 km/h 14.5 km/h 24% 0 mm 587.00 W/m2
16:49 31.1 °C 10 °C 1009 hPa ENE 11.3 km/h 11.3 km/h 27% 0 mm 573.00 W/m2
16:54 31.1 °C 10 °C 1009 hPa SSW 11.3 km/h 11.3 km/h 27% 0 mm 555.00 W/m2
16:59 31.1 °C 8.9 °C 1009 hPa WSW 11.3 km/h 11.3 km/h 25% 0 mm 543.00 W/m2
17:04 31.1 °C 8.9 °C 1009 hPa WSW 11.3 km/h 11.3 km/h 25% 0 mm 527.00 W/m2
17:09 31.1 °C 10 °C 1009 hPa WNW 11.3 km/h 11.3 km/h 27% 0 mm 510.00 W/m2
17:14 31.1 °C 11.1 °C 1009 hPa SE 6.4 km/h 11.3 km/h 29% 0 mm 496.00 W/m2
17:19 31.1 °C 11.1 °C 1009 hPa SSE 11.3 km/h 11.3 km/h 29% 0 mm 480.00 W/m2
17:24 31.1 °C 9.4 °C 1009 hPa West 11.3 km/h 11.3 km/h 26% 0 mm 464.00 W/m2
17:29 31.1 °C 9.4 °C 1009 hPa WSW 14.5 km/h 11.3 km/h 26% 0 mm 448.00 W/m2
17:34 31.1 °C 9.4 °C 1009 hPa SW 9.7 km/h 14.5 km/h 26% 0 mm 431.00 W/m2
17:39 31.1 °C 9.4 °C 1009 hPa West 17.7 km/h 9.7 km/h 26% 0 mm 415.00 W/m2
17:44 31.1 °C 8.9 °C 1009 hPa SW 14.5 km/h 16.1 km/h 26% 0 mm 401.00 W/m2
17:49 30.6 °C 9.4 °C 1009 hPa WSW 11.3 km/h 14.5 km/h 27% 0 mm 383.00 W/m2
17:54 30.6 °C 10 °C 1009 hPa SSW 20.9 km/h 16.1 km/h 28% 0 mm 366.00 W/m2
17:59 30.6 °C 10 °C 1009 hPa ESE 11.3 km/h 20.9 km/h 28% 0 mm 330.00 W/m2
18:04 30 °C 8.9 °C 1009 hPa SW 11.3 km/h 11.3 km/h 27% 0 mm 93.00 W/m2
18:09 30 °C 8.9 °C 1009 hPa WSW 9.7 km/h 9.7 km/h 27% 0 mm 56.00 W/m2
18:14 29.4 °C 8.9 °C 1009 hPa WSW 8 km/h 9.7 km/h 28% 0 mm 47.00 W/m2
18:19 29.4 °C 8.9 °C 1009 hPa SW 11.3 km/h 9.7 km/h 28% 0 mm 44.00 W/m2
18:24 28.9 °C 8.9 °C 1009 hPa SSE 14.5 km/h 11.3 km/h 29% 0 mm 40.00 W/m2
18:29 28.3 °C 9.4 °C 1009 hPa SE 6.4 km/h 14.5 km/h 30% 0 mm 37.00 W/m2
18:34 28.3 °C 8.9 °C 1009 hPa East 11.3 km/h 4.8 km/h 30% 0 mm 33.00 W/m2
18:39 27.8 °C 8.3 °C 1009 hPa South 6.4 km/h 11.3 km/h 29% 0 mm 32.00 W/m2
18:44 27.8 °C 8.3 °C 1009 hPa West 9.7 km/h 6.4 km/h 30% 0 mm 58.00 W/m2
18:49 27.8 °C 8.9 °C 1009 hPa SSW 14.5 km/h 9.7 km/h 31% 0 mm 63.00 W/m2
18:54 27.8 °C 8.3 °C 1009 hPa SSE 9.7 km/h 14.5 km/h 30% 0 mm 69.00 W/m2
18:59 27.2 °C 7.8 °C 1009 hPa WSW 9.7 km/h 9.7 km/h 29% 0 mm 44.00 W/m2
19:04 27.2 °C 7.8 °C 1009 hPa SW 20.9 km/h 9.7 km/h 29% 0 mm 37.00 W/m2
19:09 27.2 °C 7.2 °C 1009 hPa SW 25.7 km/h 20.9 km/h 28% 0 mm 23.00 W/m2
19:14 26.7 °C 7.2 °C 1009 hPa SW 25.7 km/h 25.7 km/h 29% 0 mm 21.00 W/m2
19:19 26.7 °C 7.2 °C 1009 hPa WSW 11.3 km/h 6.4 km/h 29% 0 mm 18.00 W/m2
19:24 26.1 °C 6.7 °C 1009 hPa WSW 6.4 km/h 11.3 km/h 29% 0 mm 16.00 W/m2
19:29 26.1 °C 6.7 °C 1009 hPa SW 14.5 km/h 8 km/h 29% 0 mm 16.00 W/m2
19:34 26.1 °C 6.7 °C 1009 hPa SW 17.7 km/h 14.5 km/h 30% 0 mm 14.00 W/m2
19:39 25.6 °C 6.7 °C 1009 hPa SSW 16.1 km/h 16.1 km/h 30% 0 mm 12.00 W/m2
19:44 25.6 °C 6.7 °C 1009 hPa West 11.3 km/h 9.7 km/h 30% 0 mm 12.00 W/m2
19:49 25.6 °C 7.2 °C 1009 hPa SW 14.5 km/h 11.3 km/h 31% 0 mm 11.00 W/m2
19:54 25 °C 6.7 °C 1009 hPa WSW 14.5 km/h 14.5 km/h 31% 0 mm 11.00 W/m2
19:59 25 °C 7.2 °C 1009 hPa SE 6.4 km/h 9.7 km/h 32% 0 mm 9.00 W/m2
20:04 25 °C 6.7 °C 1009 hPa SW 6.4 km/h 4.8 km/h 32% 0 mm 9.00 W/m2
20:09 24.4 °C 6.1 °C 1009 hPa Calm   4.8 km/h 31% 0 mm 7.00 W/m2
20:14 24.4 °C 6.7 °C 1009 hPa Calm     32% 0 mm 5.00 W/m2
20:19 24.4 °C 7.2 °C 1009 hPa WSW 3.2 km/h   33% 0 mm 5.00 W/m2
20:24 24.4 °C 6.7 °C 1009 hPa SSW 3.2 km/h 3.2 km/h 32% 0 mm 0.00 W/m2
20:29 23.9 °C 6.7 °C 1009 hPa South 3.2 km/h 3.2 km/h 33% 0 mm 0.00 W/m2
20:34 23.9 °C 6.7 °C 1009 hPa Calm   3.2 km/h 33% 0 mm 0.00 W/m2
20:39 23.9 °C 6.7 °C 1009 hPa Calm     34% 0 mm 0.00 W/m2
20:44 23.9 °C 7.2 °C 1009 hPa Calm     35% 0 mm 0.00 W/m2
20:49 23.3 °C 6.7 °C 1009 hPa South 3.2 km/h   34% 0 mm 0.00 W/m2
20:54 23.3 °C 6.7 °C 1009 hPa Calm   3.2 km/h 35% 0 mm 0.00 W/m2
20:59 23.3 °C 6.7 °C 1009 hPa South 3.2 km/h   35% 0 mm 0.00 W/m2
21:04 22.8 °C 6.1 °C 1009 hPa Calm   3.2 km/h 34% 0 mm 0.00 W/m2
21:09 22.8 °C 6.7 °C 1009 hPa Calm     36% 0 mm 0.00 W/m2
21:14 22.8 °C 6.1 °C 1009 hPa South 3.2 km/h   35% 0 mm 0.00 W/m2
21:19 22.2 °C 6.1 °C 1009 hPa SSE 3.2 km/h 3.2 km/h 35% 0 mm 0.00 W/m2
21:24 22.2 °C 6.1 °C 1009 hPa SE 3.2 km/h 3.2 km/h 35% 0 mm 0.00 W/m2
21:29 22.2 °C 6.1 °C 1009 hPa East 3.2 km/h 3.2 km/h 35% 0 mm 0.00 W/m2
21:33 21.7 °C 6.1 °C 1009 hPa ENE 3.2 km/h 3.2 km/h 36% 0 mm 0.00 W/m2
21:39 21.7 °C 6.1 °C 1009 hPa ESE 3.2 km/h 1.6 km/h 37% 0 mm 0.00 W/m2
21:44 21.7 °C 5.6 °C 1009 hPa Calm   3.2 km/h 36% 0 mm 0.00 W/m2
21:49 21.7 °C 5.6 °C 1009 hPa ESE 3.2 km/h   36% 0 mm 0.00 W/m2
21:54 21.1 °C 6.1 °C 1009 hPa ESE 3.2 km/h 3.2 km/h 37% 0 mm 0.00 W/m2
21:59 21.1 °C 6.1 °C 1009 hPa ESE 6.4 km/h 3.2 km/h 38% 0 mm 0.00 W/m2
22:04 21.1 °C 6.1 °C 1009 hPa ESE 3.2 km/h 4.8 km/h 38% 0 mm 0.00 W/m2
22:09 20.6 °C 6.1 °C 1009 hPa ESE 3.2 km/h 3.2 km/h 38% 0 mm 0.00 W/m2
22:14 20.6 °C 6.1 °C 1009 hPa SE 3.2 km/h 3.2 km/h 39% 0 mm 0.00 W/m2
22:19 20.6 °C 6.1 °C 1009 hPa ESE 3.2 km/h 1.6 km/h 40% 0 mm 0.00 W/m2
22:24 20.6 °C 6.7 °C 1009 hPa ESE 3.2 km/h 3.2 km/h 41% 0 mm 0.00 W/m2
22:29 20 °C 6.7 °C 1009 hPa SE 6.4 km/h 4.8 km/h 41% 0 mm 0.00 W/m2
22:34 20 °C 6.7 °C 1009 hPa Calm   3.2 km/h 42% 0 mm 0.00 W/m2
22:39 20 °C 6.1 °C 1009 hPa SSE 3.2 km/h   41% 0 mm 0.00 W/m2
El Dorado Weather
Compliments of Weather Underground - 2 mb